Stafford, VA

7:48 AM EDT on July 26, 2017 (GMT -0400)
Stafford

Weather History for KRMN - July, 2013

Change the Weather History Date:

Friday, July 12, 2013

  Actual Average (KNYG) Record (KNYG)
Temperature  
Mean Temperature 72 °F -  
Max Temperature 77 °F 83 °F 95 °F (2017)
Min Temperature 66 °F 64 °F 55 °F (2002)
Cooling Degree Days 6    
Growing Degree Days 22 (Base 50)    
Moisture  
Dew Point 69 °F    
Average Humidity 93    
Maximum Humidity 100    
Minimum Humidity 76    
Precipitation  
Precipitation 0.90 in - - ()
Sea Level Pressure  
Sea Level Pressure 30.02 in    
Wind  
Wind Speed 6 mph (North)    
Max Wind Speed 20 mph    
Max Gust Speed 25 mph    
Visibility 9 miles    
Events Rain , Thunderstorm    
Averages and records for this station are not official NWS values.
T = Trace of Precipitation, MM = Missing Value Source: NWS Daily Summary

Daily Weather History Graph

Daily Weather History Graph

Search for Another Location

Airport or City:

Trip Planner

Search our weather history database for the weather conditions in past years. The results will help you decide how hot, cold, wet, or windy it might be!

Date:

Astronomy

Jul. 12, 2013 Rise Set
Actual Time 5:56 AM EDT 8:34 PM EDT
Civil Twilight 5:25 AM EDT 9:05 PM EDT
Nautical Twilight 4:46 AM EDT 9:43 PM EDT
Astronomical Twilight 4:03 AM EDT 10:27 PM EDT
Moon 10:07 AM EDT (7/12) 10:48 PM EDT (7/12)
Length of Visible Light 15h 40m
Length of Day
14h 38m
Waxing Crescent, 17% of the Moon is Illuminated
Jul 12
Waxing Crescent
Jul 15
First Quarter
Jul 22
Full
Jul 29
Last Quarter
Aug 6
New

Hourly Weather History & Observations

Time (EDT) Temp. Dew Point Humidity Pressure Visibility Wind Dir Wind Speed Gust Speed Precip Events Conditions
12:15 AM 75.6 °F 73.9 °F 95% 29.95 in 10.0 mi Calm Calm - N/A   Scattered Clouds
12:35 AM 74.3 °F 73.8 °F 98% 29.96 in 7.0 mi Calm Calm - N/A Rain Rain
12:55 AM 75.2 °F 74.7 °F 98% 29.96 in 7.0 mi Calm Calm - N/A   Light Drizzle
1:15 AM 74.3 °F 74.3 °F 100% 29.96 in 5.0 mi Calm Calm - N/A Rain Light Rain
1:35 AM 75.0 °F 74.7 °F 99% 29.96 in 5.0 mi Calm Calm - 0.01 in Rain Rain
1:55 AM 72.1 °F 70.2 °F 93% 29.97 in 7.0 mi NW 19.6 mph 25.3 mph 0.02 in Rain Light Rain
2:15 AM 68.2 °F 66.7 °F 95% 29.97 in 10.0 mi North 12.7 mph 24.2 mph N/A Rain , Thunderstorm Light Thunderstorms and Rain
2:35 AM 67.3 °F 65.5 °F 94% 29.99 in 5.0 mi NNE 8.1 mph - 0.07 in Rain Heavy Rain
2:55 AM 66.4 °F 65.8 °F 98% 29.98 in 5.0 mi NNW 15.0 mph - 0.28 in Rain Rain
3:15 AM 67.1 °F 66.0 °F 96% 29.96 in 10.0 mi North 11.5 mph 19.6 mph N/A   Overcast
3:35 AM 67.3 °F 66.4 °F 97% 29.95 in 10.0 mi North 10.4 mph - N/A   Overcast
3:55 AM 67.8 °F 67.1 °F 98% 29.95 in 10.0 mi North 8.1 mph - N/A Rain Light Rain
4:15 AM 67.6 °F 67.3 °F 99% 29.96 in 10.0 mi North 8.1 mph - 0.01 in Rain Light Rain
4:35 AM 68.2 °F 68.0 °F 99% 29.95 in 10.0 mi North 8.1 mph - 0.01 in Rain Light Rain
4:55 AM 68.2 °F 67.8 °F 99% 29.95 in 10.0 mi North 9.2 mph - 0.02 in Rain Light Rain
5:15 AM 68.2 °F 67.5 °F 98% 29.95 in 10.0 mi North 8.1 mph - N/A   Light Drizzle
5:35 AM 68.4 °F 67.6 °F 98% 29.96 in 10.0 mi North 8.1 mph - N/A   Overcast
5:55 AM 68.4 °F 67.6 °F 98% 29.97 in 10.0 mi North 4.6 mph - N/A   Overcast
6:15 AM 68.4 °F 67.8 °F 98% 29.99 in 10.0 mi NW 5.8 mph - N/A Rain Light Rain
6:35 AM 68.4 °F 68.0 °F 99% 30.00 in 7.0 mi NNW 6.9 mph - 0.01 in Rain Rain
6:55 AM 68.2 °F 68.0 °F 99% 30.01 in 5.0 mi NNW 8.1 mph - 0.03 in Rain Rain
7:15 AM 68.2 °F 68.0 °F 99% 30.01 in 1.5 mi NNW 9.2 mph - 0.27 in Rain Heavy Rain
7:35 AM 68.0 °F 67.6 °F 99% 30.01 in 1.8 mi North 5.8 mph - 0.52 in Rain Heavy Rain
7:55 AM 68.0 °F 67.8 °F 99% 29.98 in 5.0 mi NE 10.4 mph - 0.55 in Rain Light Rain
8:15 AM 68.0 °F 67.6 °F 99% 29.99 in 7.0 mi North 6.9 mph - N/A Rain Light Rain
8:35 AM 68.2 °F 67.5 °F 98% 29.99 in 10.0 mi North 5.8 mph - N/A   Scattered Clouds
8:55 AM 68.5 °F 67.8 °F 98% 30.00 in 10.0 mi North 8.1 mph - N/A   Scattered Clouds
9:15 AM 69.1 °F 68.0 °F 96% 29.99 in 10.0 mi North 6.9 mph - N/A   Scattered Clouds
9:35 AM 70.0 °F 68.5 °F 95% 29.99 in 10.0 mi North 5.8 mph - N/A   Mostly Cloudy
9:55 AM 70.0 °F 68.7 °F 96% 30.00 in 10.0 mi NNW 5.8 mph - N/A   Overcast
10:15 AM 70.0 °F 68.5 °F 95% 30.01 in 10.0 mi North 4.6 mph - N/A   Overcast
10:35 AM 70.9 °F 69.1 °F 94% 30.02 in 10.0 mi NNW 6.9 mph - N/A   Overcast
10:55 AM 70.9 °F 68.9 °F 93% 30.02 in 10.0 mi NNW 5.8 mph - N/A   Overcast
11:15 AM 71.4 °F 69.4 °F 93% 30.03 in 10.0 mi NNW 5.8 mph - N/A   Overcast
11:35 AM 71.6 °F 69.8 °F 94% 30.04 in 10.0 mi NNW 8.1 mph - N/A   Overcast
11:55 AM 70.9 °F 69.3 °F 95% 30.04 in 10.0 mi NNW 5.8 mph - N/A   Overcast
12:15 PM 72.1 °F 69.6 °F 92% 30.03 in 10.0 mi NNW 8.1 mph - N/A   Overcast
12:35 PM 73.4 °F 70.2 °F 90% 30.03 in 10.0 mi NNW 9.2 mph - N/A   Overcast
12:55 PM 72.9 °F 70.0 °F 91% 30.03 in 10.0 mi NNW 10.4 mph - N/A   Overcast
1:15 PM 73.4 °F 70.0 °F 89% 30.03 in 10.0 mi North 9.2 mph 16.1 mph N/A   Overcast
1:35 PM 73.4 °F 69.8 °F 88% 30.03 in 10.0 mi North 9.2 mph - N/A   Overcast
1:55 PM 74.3 °F 70.3 °F 87% 30.03 in 10.0 mi North 9.2 mph - N/A   Overcast
2:15 PM 73.4 °F 70.0 °F 89% 30.03 in 10.0 mi North 5.8 mph 9.2 mph N/A   Overcast
2:35 PM 75.0 °F 70.3 °F 85% 30.03 in 10.0 mi North 11.5 mph - N/A   Overcast
2:55 PM 75.2 °F 70.0 °F 84% 30.04 in 10.0 mi NNE 9.2 mph - N/A   Overcast
3:15 PM 73.4 °F 69.8 °F 88% 30.04 in 10.0 mi North 8.1 mph - N/A   Overcast
3:35 PM 74.3 °F 70.5 °F 88% 30.04 in 10.0 mi NNW 6.9 mph - N/A   Overcast
3:55 PM 75.9 °F 70.7 °F 84% 30.03 in 10.0 mi North 5.8 mph - N/A   Mostly Cloudy
4:15 PM 77.0 °F 70.0 °F 79% 30.02 in 4.0 mi North 8.1 mph - N/A   Haze
4:35 PM 76.1 °F 69.4 °F 80% 30.03 in 10.0 mi North 9.2 mph - N/A   Overcast
4:55 PM 77.0 °F 69.3 °F 77% 30.02 in 10.0 mi NNE 9.2 mph - N/A   Overcast
5:15 PM 77.2 °F 68.9 °F 76% 30.03 in 10.0 mi NNE 6.9 mph - N/A   Mostly Cloudy
5:35 PM 75.6 °F 68.9 °F 80% 30.04 in 10.0 mi North 3.5 mph - N/A   Overcast
5:55 PM 75.4 °F 69.1 °F 81% 30.03 in 10.0 mi NNE 4.6 mph - N/A   Overcast
6:15 PM 75.2 °F 69.3 °F 82% 30.03 in 10.0 mi North 3.5 mph - N/A   Overcast
6:35 PM 75.2 °F 69.8 °F 83% 30.04 in 10.0 mi NNE 3.5 mph - N/A   Overcast
6:55 PM 75.2 °F 70.0 °F 84% 30.04 in 10.0 mi North 8.1 mph - N/A   Overcast
7:15 PM 74.3 °F 69.8 °F 86% 30.05 in 10.0 mi NNE 5.8 mph - N/A   Overcast
7:35 PM 73.9 °F 69.6 °F 86% 30.05 in 10.0 mi NNE 5.8 mph - N/A   Overcast
7:55 PM 73.4 °F 69.6 °F 88% 30.05 in 10.0 mi NNW 5.8 mph - N/A   Overcast
8:15 PM 73.2 °F 70.3 °F 91% 30.06 in 10.0 mi North 8.1 mph - N/A   Overcast
8:35 PM 72.5 °F 69.8 °F 91% 30.07 in 10.0 mi NNW 6.9 mph - N/A   Overcast
8:55 PM 71.8 °F 69.8 °F 93% 30.06 in 10.0 mi North 6.9 mph - N/A   Mostly Cloudy
9:15 PM 71.2 °F 69.3 °F 93% 30.07 in 10.0 mi NNW 5.8 mph - N/A   Scattered Clouds
9:35 PM 70.9 °F 69.4 °F 95% 30.07 in 10.0 mi NNW 4.6 mph - N/A   Scattered Clouds
9:55 PM 70.9 °F 69.4 °F 95% 30.07 in 10.0 mi North 3.5 mph - N/A   Mostly Cloudy
10:15 PM 71.1 °F 69.4 °F 95% 30.08 in 10.0 mi NNW 3.5 mph - N/A   Overcast
10:35 PM 70.9 °F 69.8 °F 96% 30.08 in 10.0 mi Calm Calm - N/A   Overcast
10:55 PM 70.3 °F 69.4 °F 97% 30.08 in 10.0 mi Calm Calm - N/A   Mostly Cloudy
11:15 PM 69.3 °F 69.1 °F 99% 30.08 in 7.0 mi NW 3.5 mph - N/A   Scattered Clouds
11:35 PM 70.0 °F 69.8 °F 99% 30.08 in 7.0 mi NW 4.6 mph - N/A   Mostly Cloudy
11:55 PM 70.5 °F 69.8 °F 98% 30.09 in 10.0 mi WNW 4.6 mph - N/A   Overcast